San Antonio International Airport
KSAT : now visible

Airfield :











YOU CAN JOIN US ON...

 
LOGIN :

Register | Disclaimer

   EN    FR    IT 

 









Legend :    VFR   Marginal VFR   IFR   Intensive IFR   Very Intensive IFR
Visi :
Ceiling :
>= 8 km
>= 3000ft
5 to 8 km
1000 to 3000 ft
1500m to 5 km
500 to 1000 ft
800 to 1500m
200 to 500 ft
< 800m
< 200 ft
Symbols :   Thunderstorms  Fog  Heavy snow  Heavy precipitations  Wind > 20 kt






- Airport Elevation : 809 ft
- IATA code : SAT


KSAT - San Antonio International

CURRENT METAR :
  • 202151Z 17012KT 10SM FEW039 BKN250 32/22 A2976 RMK AO2 SLP059 T03170222

EXPIRED METARs :
  • 202051Z 15009KT 10SM SCT041 BKN250 32/23 A2977 RMK AO2 SLP061 T03220228 56017
  • 201951Z 17010G18KT 10SM SCT046 BKN250 32/23 A2978 RMK AO2 SLP064 T03220228

TAF KSAT
Valid from the 20 at 18:00 until the 22 at 00:00 UTC


201721Z 2018/2124 15012G22KT P6SM FEW025 BKN200
FM210600 14012KT P6SM BKN012
FM211700 17010KT P6SM SCT025 BKN250
KZHU FIR / North America



MET'MAP, your aeronautical weather chart ! - Copyright ORBIFLY December 2007 - Disclaimer

ORBIFLY MET'MAP TEAM :

Programming & Development : Alexandra Zaïnal
Concept & original design : Baudouin d'Aumeries
Assistance for programming : Marc-Olivier Méhu
Technical & hardware support : Manuel Goepfert

Contact : metmap@orbifly.com




SOURCES & CREDITS :

   NOAA       Earth
Advisory